Notices

What's New in latest Release from April 7th, 2021:

- Updated Glossary, including Speed of Maximum Gust, and Total Hourly Precipitation

- Updated national and regional climate services offices contacts and prices information

- Addition of station inventory lists for 1981-2010, 1971-2000, and 1961-1990 Normals.

If you haven't already, please take our survey and provide feedback about our website: https://eccc.sondage-survey.ca/f/LanguageSelection.aspx?s=442ca660-fcf1-47c0-95a9-59707d6fd709

Hourly Data Report for April 17, 2021

KENORA A
ONTARIO
Current Station Operator: NAVCAN

49°47'18.000" N
94°21'47.000" W
409.70 m
6034076
71850
YQK

Download Data

Hourly Data (April 2021)
Hourly Data Report for April 17, 2021
TIME
LST
Temp Definition
°C
Dew Point Definition
°C
Rel Hum Definition
%
Precip. Amount Definition
mm

Wind Dir Definition
10's deg

Wind Spd Definition
km/h
Visibility Definition
km
Stn Press Definition
kPa
Hmdx Definition


Wind Chill Definition


Weather Definition


00:00 3.2 -7.2 46   32 11 24.1 97.08     Clear
01:00 2.9 -7.8 45   31 14 24.1 97.08     LegendNANA
02:00 3.1 -8.2 44   32 13 24.1 97.04     LegendNANA
03:00 2.2 -8.1 46   33 8 24.1 97.01     Clear
04:00 0.5 -7.5 55   34 9 24.1 96.99     LegendNANA
05:00 0.7 -8.2 51   33 8 24.1 96.96     LegendNANA
06:00 0.5 -7.8 54   31 12 32.2 96.97     Clear
07:00 1.6 -7.8 50   34 9 32.2 96.97     LegendNANA
08:00 3.2 -6.7 48   31 7 32.2 96.95     LegendNANA
09:00 5.9 -7.3 38   30 9 32.2 96.93     Clear
10:00 7.7 -8.8 30   30 14 32.2 96.91     LegendNANA
11:00 9.3 -8.2 28   30 7 32.2 96.87     LegendNANA
12:00 9.9 -7.9 28   31 21 32.2 96.81     Mainly Clear
13:00 10.2 -6.7 30   32 14 32.2 96.76     LegendNANA
14:00 10.7 -6.5 29   32 15 32.2 96.72     LegendNANA
15:00 11.5 -4.9 31   35 13 32.2 96.66     Mainly Clear
16:00 11.8 -4.9 31   1 13 32.2 96.59     LegendNANA
17:00 12.0 -5.1 30   32 8 32.2 96.56     LegendNANA
18:00 11.2 -5.0 32   35 10 32.2 96.54     Mainly Clear
19:00 9.8 -4.9 35   31 7 32.2 96.52     LegendNANA
20:00 8.9 -5.4 36   30 8 24.1 96.51     LegendNANA
21:00 7.6 -4.5 42   30 10 24.1 96.49     Mainly Clear
22:00 7.0 -4.6 43   30 12 24.1 96.47     LegendNANA
23:00 6.3 -4.6 46   30 9 24.1 96.42     LegendNANA

Notes on Data Quality.

Legend

  • E = Estimated
  • M = Missing
  • NA = Not Available*
  • [empty] = Indicates an unobserved value
Date modified: